Wetterdaten: Samstag, 15.12.2007
Datum Zeit Temp. A. Feuchte A. Luftdruck Regen Wind Richtung Richtung Sonnenschein UV Solar Windben
15.12.2007 00:00 1,8 C 80 % 1037,6 hPa 0,0 mm 1,6 km/h (1 Bft) O-NO 67 0 min 0 UV-I 0 W/m 4,8 km/h (1 Bft)
15.12.2007 00:10 1,8 C 80 % 1037,6 hPa 0,0 mm 1,6 km/h (1 Bft) O-NO 67 0 min 0 UV-I 0 W/m 6,4 km/h (2 Bft)
15.12.2007 00:20 1,8 C 80 % 1037,6 hPa 0,0 mm 1,6 km/h (1 Bft) N-NO 22 0 min 0 UV-I 0 W/m 3,2 km/h (1 Bft)
15.12.2007 00:30 1,8 C 80 % 1037,6 hPa 0,0 mm 0,0 km/h (0 Bft) N-NO 22 0 min 0 UV-I 0 W/m 1,6 km/h (1 Bft)
15.12.2007 00:40 1,8 C 80 % 1037,6 hPa 0,0 mm 1,6 km/h (1 Bft) NO 45 0 min 0 UV-I 0 W/m 4,8 km/h (1 Bft)
15.12.2007 00:50 1,8 C 81 % 1037,5 hPa 0,0 mm 1,6 km/h (1 Bft) NO 45 0 min 0 UV-I 0 W/m 4,8 km/h (1 Bft)
15.12.2007 01:00 1,8 C 81 % 1037,4 hPa 0,0 mm 1,6 km/h (1 Bft) O-NO 67 0 min 0 UV-I 0 W/m 4,8 km/h (1 Bft)
15.12.2007 01:10 1,7 C 81 % 1037,4 hPa 0,0 mm 3,2 km/h (1 Bft) O-NO 67 0 min 0 UV-I 0 W/m 8,0 km/h (2 Bft)
15.12.2007 01:20 1,8 C 81 % 1037,4 hPa 0,0 mm 4,8 km/h (1 Bft) O-NO 67 0 min 0 UV-I 0 W/m 9,7 km/h (2 Bft)
15.12.2007 01:30 1,8 C 81 % 1037,2 hPa 0,0 mm 4,8 km/h (1 Bft) O-NO 67 0 min 0 UV-I 0 W/m 8,0 km/h (2 Bft)
15.12.2007 01:40 1,8 C 81 % 1037,3 hPa 0,0 mm 3,2 km/h (1 Bft) O-NO 67 0 min 0 UV-I 0 W/m 8,0 km/h (2 Bft)
15.12.2007 01:50 1,8 C 81 % 1037,2 hPa 0,0 mm 3,2 km/h (1 Bft) O-NO 67 0 min 0 UV-I 0 W/m 8,0 km/h (2 Bft)
15.12.2007 02:00 1,9 C 81 % 1037,1 hPa 0,0 mm 3,2 km/h (1 Bft) O-NO 67 0 min 0 UV-I 0 W/m 9,7 km/h (2 Bft)
15.12.2007 02:10 1,9 C 81 % 1037,0 hPa 0,0 mm 1,6 km/h (1 Bft) O-NO 67 0 min 0 UV-I 0 W/m 6,4 km/h (2 Bft)
15.12.2007 02:20 1,9 C 81 % 1037,1 hPa 0,0 mm 1,6 km/h (1 Bft) O-NO 67 0 min 0 UV-I 0 W/m 8,0 km/h (2 Bft)
15.12.2007 02:30 1,9 C 81 % 1037,1 hPa 0,0 mm 1,6 km/h (1 Bft) NO 45 0 min 0 UV-I 0 W/m 4,8 km/h (1 Bft)
15.12.2007 02:40 1,9 C 82 % 1037,1 hPa 0,0 mm 1,6 km/h (1 Bft) O-NO 67 0 min 0 UV-I 0 W/m 4,8 km/h (1 Bft)
15.12.2007 02:50 1,9 C 82 % 1037,1 hPa 0,0 mm 1,6 km/h (1 Bft) O 90 0 min 0 UV-I 0 W/m 6,4 km/h (2 Bft)
15.12.2007 03:00 1,9 C 82 % 1037,0 hPa 0,0 mm 3,2 km/h (1 Bft) O-NO 67 0 min 0 UV-I 0 W/m 6,4 km/h (2 Bft)
15.12.2007 03:10 1,9 C 83 % 1036,9 hPa 0,0 mm 1,6 km/h (1 Bft) O-NO 67 0 min 0 UV-I 0 W/m 4,8 km/h (1 Bft)
15.12.2007 03:20 1,9 C 83 % 1037,0 hPa 0,0 mm 1,6 km/h (1 Bft) O-NO 67 0 min 0 UV-I 0 W/m 4,8 km/h (1 Bft)
15.12.2007 03:30 1,9 C 83 % 1037,1 hPa 0,0 mm 1,6 km/h (1 Bft) O-NO 67 0 min 0 UV-I 0 W/m 4,8 km/h (1 Bft)
15.12.2007 03:40 1,9 C 83 % 1037,0 hPa 0,0 mm 1,6 km/h (1 Bft) NO 45 0 min 0 UV-I 0 W/m 4,8 km/h (1 Bft)
15.12.2007 03:50 1,9 C 83 % 1037,0 hPa 0,0 mm 0,0 km/h (0 Bft) NO 45 0 min 0 UV-I 0 W/m 4,8 km/h (1 Bft)
15.12.2007 04:00 1,9 C 83 % 1037,0 hPa 0,0 mm 0,0 km/h (0 Bft) NO 45 0 min 0 UV-I 0 W/m 3,2 km/h (1 Bft)
15.12.2007 04:10 1,9 C 83 % 1036,9 hPa 0,0 mm 1,6 km/h (1 Bft) NO 45 0 min 0 UV-I 0 W/m 4,8 km/h (1 Bft)
15.12.2007 04:20 1,9 C 83 % 1036,8 hPa 0,0 mm 1,6 km/h (1 Bft) NO 45 0 min 0 UV-I 0 W/m 4,8 km/h (1 Bft)
15.12.2007 04:30 1,8 C 83 % 1036,7 hPa 0,0 mm 1,6 km/h (1 Bft) NO 45 0 min 0 UV-I 0 W/m 3,2 km/h (1 Bft)
15.12.2007 04:40 1,8 C 83 % 1036,7 hPa 0,0 mm 1,6 km/h (1 Bft) O-NO 67 0 min 0 UV-I 0 W/m 6,4 km/h (2 Bft)
15.12.2007 04:50 1,8 C 83 % 1036,7 hPa 0,0 mm 3,2 km/h (1 Bft) O-NO 67 0 min 0 UV-I 0 W/m 8,0 km/h (2 Bft)
15.12.2007 05:00 1,8 C 83 % 1036,7 hPa 0,0 mm 3,2 km/h (1 Bft) O-NO 67 0 min 0 UV-I 0 W/m 8,0 km/h (2 Bft)
15.12.2007 05:10 1,8 C 83 % 1036,8 hPa 0,0 mm 1,6 km/h (1 Bft) O-NO 67 0 min 0 UV-I 0 W/m 4,8 km/h (1 Bft)
15.12.2007 05:20 1,8 C 83 % 1036,8 hPa 0,0 mm 1,6 km/h (1 Bft) O-NO 67 0 min 0 UV-I 0 W/m 4,8 km/h (1 Bft)
15.12.2007 05:30 1,8 C 83 % 1036,7 hPa 0,0 mm 1,6 km/h (1 Bft) O-SO 112 0 min 0 UV-I 0 W/m 8,0 km/h (2 Bft)
15.12.2007 05:40 1,8 C 84 % 1036,7 hPa 0,0 mm 1,6 km/h (1 Bft) O 90 0 min 0 UV-I 0 W/m 4,8 km/h (1 Bft)
15.12.2007 05:50 1,8 C 84 % 1036,6 hPa 0,0 mm 1,6 km/h (1 Bft) O-NO 67 0 min 0 UV-I 0 W/m 4,8 km/h (1 Bft)
15.12.2007 06:00 1,8 C 84 % 1036,6 hPa 0,0 mm 1,6 km/h (1 Bft) O-NO 67 0 min 0 UV-I 0 W/m 4,8 km/h (1 Bft)
15.12.2007 06:10 1,8 C 83 % 1036,5 hPa 0,0 mm 0,0 km/h (0 Bft) NO 45 0 min 0 UV-I 0 W/m 3,2 km/h (1 Bft)
15.12.2007 06:20 1,8 C 84 % 1036,7 hPa 0,0 mm 0,0 km/h (0 Bft) NO 45 0 min 0 UV-I 0 W/m 3,2 km/h (1 Bft)
15.12.2007 06:30 1,7 C 84 % 1036,7 hPa 0,0 mm 1,6 km/h (1 Bft) NO 45 0 min 0 UV-I 0 W/m 6,4 km/h (2 Bft)
15.12.2007 06:40 1,7 C 84 % 1036,9 hPa 0,0 mm 1,6 km/h (1 Bft) NO 45 0 min 0 UV-I 0 W/m 4,8 km/h (1 Bft)
15.12.2007 06:50 1,6 C 85 % 1036,9 hPa 0,0 mm 1,6 km/h (1 Bft) NO 45 0 min 0 UV-I 0 W/m 3,2 km/h (1 Bft)
15.12.2007 07:00 1,6 C 85 % 1036,9 hPa 0,0 mm 0,0 km/h (0 Bft) NO 45 0 min 0 UV-I 0 W/m 3,2 km/h (1 Bft)
15.12.2007 07:10 1,6 C 85 % 1037,0 hPa 0,0 mm 1,6 km/h (1 Bft) NO 45 0 min 0 UV-I 0 W/m 4,8 km/h (1 Bft)
15.12.2007 07:20 1,6 C 85 % 1037,0 hPa 0,0 mm 1,6 km/h (1 Bft) NO 45 0 min 0 UV-I 0 W/m 6,4 km/h (2 Bft)
15.12.2007 07:30 1,5 C 85 % 1037,0 hPa 0,0 mm 0,0 km/h (0 Bft) N-NO 22 0 min 0 UV-I 0 W/m 3,2 km/h (1 Bft)
15.12.2007 07:40 1,5 C 85 % 1037,0 hPa 0,0 mm 1,6 km/h (1 Bft) N-NO 22 0 min 0 UV-I 0 W/m 4,8 km/h (1 Bft)
15.12.2007 07:50 1,4 C 85 % 1037,1 hPa 0,0 mm 0,0 km/h (0 Bft) N-NO 22 0 min 0 UV-I 0 W/m 3,2 km/h (1 Bft)
15.12.2007 08:00 1,4 C 85 % 1037,2 hPa 0,0 mm 0,0 km/h (0 Bft) N-NO 22 0 min 0 UV-I 0 W/m 1,6 km/h (1 Bft)
15.12.2007 08:10 1,4 C 85 % 1037,3 hPa 0,0 mm 0,0 km/h (0 Bft) N-NO 22 0 min 0 UV-I 0 W/m 4,8 km/h (1 Bft)
15.12.2007 08:20 1,4 C 86 % 1037,3 hPa 0,0 mm 1,6 km/h (1 Bft) N-NO 22 0 min 0 UV-I 0 W/m 4,8 km/h (1 Bft)
15.12.2007 08:30 1,4 C 86 % 1037,4 hPa 0,0 mm 0,0 km/h (0 Bft) N-NO 22 0 min 0 UV-I 0 W/m 4,8 km/h (1 Bft)
15.12.2007 08:40 1,4 C 86 % 1037,5 hPa 0,0 mm 1,6 km/h (1 Bft) N-NO 22 10 min 0 UV-I 9 W/m 6,4 km/h (2 Bft)
15.12.2007 08:50 1,4 C 86 % 1037,6 hPa 0,0 mm 1,6 km/h (1 Bft) N-NO 22 0 min 0 UV-I 14 W/m 4,8 km/h (1 Bft)
15.12.2007 09:00 1,3 C 86 % 1037,6 hPa 0,0 mm 1,6 km/h (1 Bft) NO 45 0 min 0 UV-I 19 W/m 4,8 km/h (1 Bft)
15.12.2007 09:10 1,3 C 86 % 1037,8 hPa 0,0 mm 1,6 km/h (1 Bft) NO 45 0 min 0 UV-I 40 W/m 4,8 km/h (1 Bft)
15.12.2007 09:20 1,3 C 86 % 1037,8 hPa 0,0 mm 1,6 km/h (1 Bft) NO 45 0 min 0 UV-I 37 W/m 3,2 km/h (1 Bft)
15.12.2007 09:30 1,3 C 86 % 1037,7 hPa 0,0 mm 1,6 km/h (1 Bft) NO 45 0 min 0 UV-I 25 W/m 4,8 km/h (1 Bft)
15.12.2007 09:40 1,2 C 86 % 1037,8 hPa 0,0 mm 1,6 km/h (1 Bft) NO 45 0 min 0 UV-I 23 W/m 4,8 km/h (1 Bft)
15.12.2007 09:50 1,1 C 86 % 1037,8 hPa 0,0 mm 1,6 km/h (1 Bft) N 360 0 min 0 UV-I 37 W/m 6,4 km/h (2 Bft)
15.12.2007 10:00 1,0 C 86 % 1037,8 hPa 0,0 mm 1,6 km/h (1 Bft) NO 45 0 min 0 UV-I 54 W/m 8,0 km/h (2 Bft)
15.12.2007 10:10 0,9 C 87 % 1038,0 hPa 0,0 mm 3,2 km/h (1 Bft) O-NO 67 0 min 0 UV-I 60 W/m 6,4 km/h (2 Bft)
15.12.2007 10:20 1,0 C 87 % 1037,9 hPa 0,0 mm 3,2 km/h (1 Bft) NO 45 0 min 0 UV-I 67 W/m 8,0 km/h (2 Bft)
15.12.2007 10:30 1,1 C 85 % 1037,9 hPa 0,0 mm 4,8 km/h (1 Bft) O 90 0 min 0 UV-I 69 W/m 11,3 km/h (2 Bft)
15.12.2007 10:40 1,3 C 81 % 1037,8 hPa 0,0 mm 4,8 km/h (1 Bft) O 90 0 min 0 UV-I 70 W/m 14,5 km/h (3 Bft)
15.12.2007 10:50 1,4 C 78 % 1037,8 hPa 0,0 mm 4,8 km/h (1 Bft) O 90 0 min 0 UV-I 76 W/m 14,5 km/h (3 Bft)
15.12.2007 11:00 1,7 C 75 % 1037,8 hPa 0,0 mm 4,8 km/h (1 Bft) O 90 0 min 0 UV-I 83 W/m 9,7 km/h (2 Bft)
15.12.2007 11:10 1,9 C 74 % 1037,8 hPa 0,0 mm 4,8 km/h (1 Bft) O-NO 67 0 min 0 UV-I 98 W/m 16,1 km/h (3 Bft)
15.12.2007 11:20 2,2 C 73 % 1037,8 hPa 0,0 mm 4,8 km/h (1 Bft) O-NO 67 0 min 0 UV-I 97 W/m 14,5 km/h (3 Bft)
15.12.2007 11:30 2,3 C 71 % 1037,6 hPa 0,0 mm 6,4 km/h (2 Bft) O-NO 67 0 min 0 UV-I 83 W/m 12,9 km/h (3 Bft)
15.12.2007 11:40 2,4 C 70 % 1037,7 hPa 0,0 mm 6,4 km/h (2 Bft) O-NO 67 0 min 0 UV-I 76 W/m 16,1 km/h (3 Bft)
15.12.2007 11:50 2,4 C 69 % 1037,7 hPa 0,0 mm 6,4 km/h (2 Bft) O-NO 67 0 min 0 UV-I 72 W/m 19,3 km/h (3 Bft)
15.12.2007 12:00 2,5 C 67 % 1037,6 hPa 0,0 mm 8,0 km/h (2 Bft) O 90 0 min 0 UV-I 76 W/m 17,7 km/h (3 Bft)
15.12.2007 12:10 2,5 C 68 % 1037,7 hPa 0,0 mm 6,4 km/h (2 Bft) O 90 0 min 0 UV-I 83 W/m 16,1 km/h (3 Bft)
15.12.2007 12:20 2,5 C 68 % 1037,7 hPa 0,0 mm 6,4 km/h (2 Bft) O 90 0 min 0 UV-I 81 W/m 17,7 km/h (3 Bft)
15.12.2007 12:30 2,5 C 67 % 1037,6 hPa 0,0 mm 8,0 km/h (2 Bft) O 90 0 min 0 UV-I 63 W/m 17,7 km/h (3 Bft)
15.12.2007 12:40 2,5 C 67 % 1037,7 hPa 0,0 mm 6,4 km/h (2 Bft) O 90 0 min 0 UV-I 72 W/m 16,1 km/h (3 Bft)
15.12.2007 12:50 2,4 C 66 % 1037,5 hPa 0,0 mm 6,4 km/h (2 Bft) O 90 0 min 0 UV-I 79 W/m 19,3 km/h (3 Bft)
15.12.2007 13:00 2,4 C 66 % 1037,6 hPa 0,0 mm 6,4 km/h (2 Bft) O 90 0 min 0 UV-I 65 W/m 16,1 km/h (3 Bft)
15.12.2007 13:10 2,4 C 66 % 1037,5 hPa 0,0 mm 6,4 km/h (2 Bft) O 90 0 min 0 UV-I 54 W/m 16,1 km/h (3 Bft)
15.12.2007 13:20 2,4 C 67 % 1037,4 hPa 0,0 mm 6,4 km/h (2 Bft) O 90 0 min 0 UV-I 42 W/m 16,1 km/h (3 Bft)
15.12.2007 13:30 2,3 C 67 % 1037,4 hPa 0,0 mm 6,4 km/h (2 Bft) O 90 0 min 0 UV-I 40 W/m 16,1 km/h (3 Bft)
15.12.2007 13:40 2,3 C 67 % 1037,5 hPa 0,0 mm 6,4 km/h (2 Bft) O 90 0 min 0 UV-I 40 W/m 19,3 km/h (3 Bft)
15.12.2007 13:50 2,2 C 67 % 1037,4 hPa 0,0 mm 6,4 km/h (2 Bft) O 90 0 min 0 UV-I 62 W/m 14,5 km/h (3 Bft)
15.12.2007 14:00 2,2 C 67 % 1037,6 hPa 0,0 mm 4,8 km/h (1 Bft) O-NO 67 0 min 0 UV-I 67 W/m 14,5 km/h (3 Bft)
15.12.2007 14:10 2,2 C 68 % 1037,6 hPa 0,0 mm 4,8 km/h (1 Bft) O 90 0 min 0 UV-I 54 W/m 14,5 km/h (3 Bft)
15.12.2007 14:20 2,1 C 68 % 1037,5 hPa 0,0 mm 4,8 km/h (1 Bft) O-NO 67 0 min 0 UV-I 40 W/m 9,7 km/h (2 Bft)
15.12.2007 14:30 2,1 C 67 % 1037,4 hPa 0,0 mm 6,4 km/h (2 Bft) O 90 0 min 0 UV-I 39 W/m 16,1 km/h (3 Bft)
15.12.2007 14:40 2,0 C 67 % 1037,3 hPa 0,0 mm 4,8 km/h (1 Bft) O 90 0 min 0 UV-I 40 W/m 12,9 km/h (3 Bft)
15.12.2007 14:50 2,0 C 68 % 1037,4 hPa 0,0 mm 4,8 km/h (1 Bft) O 90 0 min 0 UV-I 40 W/m 16,1 km/h (3 Bft)
15.12.2007 15:00 1,9 C 68 % 1037,1 hPa 0,0 mm 4,8 km/h (1 Bft) O 90 0 min 0 UV-I 37 W/m 11,3 km/h (2 Bft)
15.12.2007 15:10 1,9 C 69 % 1037,3 hPa 0,0 mm 4,8 km/h (1 Bft) O 90 0 min 0 UV-I 37 W/m 11,3 km/h (2 Bft)
15.12.2007 15:20 1,9 C 69 % 1037,4 hPa 0,0 mm 4,8 km/h (1 Bft) O 90 0 min 0 UV-I 28 W/m 9,7 km/h (2 Bft)
15.12.2007 15:30 1,8 C 68 % 1037,3 hPa 0,0 mm 4,8 km/h (1 Bft) O 90 0 min 0 UV-I 19 W/m 11,3 km/h (2 Bft)
15.12.2007 15:40 1,7 C 67 % 1037,4 hPa 0,0 mm 4,8 km/h (1 Bft) O 90 0 min 0 UV-I 26 W/m 14,5 km/h (3 Bft)
15.12.2007 15:50 1,4 C 65 % 1037,5 hPa 0,0 mm 6,4 km/h (2 Bft) O 90 10 min 0 UV-I 26 W/m 19,3 km/h (3 Bft)
15.12.2007 16:00 1,2 C 64 % 1037,7 hPa 0,0 mm 4,6 km/h (1 Bft) O 99 10 min 0 UV-I 12 W/m 9,7 km/h (2 Bft)
_ Min-Zeit 10:00 16:00 06:10 - 00:30 - - - - - 00:30
Minimum _ 0,9 C 64 % 1036,5 hPa - 0,0 km/h (0 Bft) - - - - - 1,6 km/h (1 Bft)
_ Max-Zeit 11:50 10:10 10:10 00:00 12:00 - - 08:40 00:00 11:10 11:50
Maximum _ 2,5 C 87 % 1038,0 hPa 0,0 mm 8,0 km/h
O (2 Bft)
- - 10 min 0 UV-I 98 W/m 19,3 km/h
O-NO (3 Bft)
Durchschnitt _ 1,8 C 78 % 1037,3 hPa #0,0 mm 3,1 km/h (1 Bft) O-NO - #30 min. 0 UV-I 52 W/m 8,7 km/h (2 Bft)